Date String (YYYY-MM-DD hh:mm:ss) UTC,Instrument flags,absolute air pressure of the measurement (hPa),sample flow rate (lpm),inlet stack bypass flow (lpm),air temperature of the measurement (°C),ambient temperature measured by the external sensor (°C),aerosol sample conditioner tube jacket temperature (°C),OPC LED temperature (°C),internal box temperature (°C),relative humidity of the measurement (%),span deviation,mass concentration of particles derived from Lorenz-Mie calculation of OPC scattering (μg/m³),mass concentration of particles derived from Lorenz-Mie calculation of OPC scattering (μg/m³),mass concentration of particles derived from Lorenz-Mie calculation of OPC scattering (μg/m³)
DateTimeUTC,F1_M11,P_M11,Q1_M11,Q2_M11,T1_M11,T2_M11,T3_M11,T4_M11,T5_M11,U1_M11,ZSPAN_M11,X2_M11,X0_M11,X1_M11
2024-03-29 15:00:00,SystemResetWarning,0823.0,4.99,000.00,018.2,017.0,000.0,027.0,020.0,23.7,0000.0,0002.87,0007.89,0001.88
2024-03-29 15:01:00,SystemResetWarning,0823.0,4.99,000.00,018.2,017.1,000.0,027.0,020.0,23.7,0000.0,0002.91,0007.48,0001.90
2024-03-29 15:02:00,SystemResetWarning,0822.8,5.01,000.00,018.2,017.1,000.0,027.0,020.0,23.9,0000.0,0002.96,0007.24,0001.92
2024-03-29 15:03:00,SystemResetWarning,0822.7,5.01,000.00,018.2,017.1,000.0,027.0,020.0,23.9,0000.0,0002.97,0006.25,0001.95
2024-03-29 15:04:00,SystemResetWarning,0822.8,5.01,000.00,018.2,017.1,000.0,027.0,020.0,23.9,0000.0,0002.94,0006.55,0001.97
2024-03-29 15:05:00,SystemResetWarning,0823.0,5.00,000.00,018.2,017.1,000.0,027.0,020.0,23.9,0000.0,0002.97,0006.85,0002.01
2024-03-29 15:06:00,SystemResetWarning,0822.8,5.00,000.00,018.2,017.1,000.0,027.0,020.0,23.8,0000.0,0003.02,0006.25,0002.03
2024-03-29 15:07:00,SystemResetWarning,0822.6,4.99,000.00,018.2,017.2,000.0,027.0,020.0,23.9,0000.0,0002.97,0006.18,0002.02
2024-03-29 15:08:00,SystemResetWarning,0822.6,5.00,000.00,018.2,017.2,000.0,027.0,020.0,24.0,0000.0,0003.02,0006.37,0002.04
2024-03-29 15:09:00,SystemResetWarning,0822.7,4.99,000.00,018.2,017.2,000.0,027.0,020.0,24.1,0000.0,0003.08,0007.68,0002.06
2024-03-29 15:10:00,SystemResetWarning,0822.7,5.01,000.00,018.2,017.2,000.0,027.0,020.0,24.1,0000.0,0003.11,0007.90,0002.09
2024-03-29 15:11:00,SystemResetWarning,0822.7,5.01,000.00,018.2,017.2,000.0,027.0,020.0,24.1,0000.0,0003.15,0008.35,0002.12
2024-03-29 15:12:00,SystemResetWarning,0822.6,5.00,000.00,018.2,017.2,000.0,026.9,020.0,24.1,0000.0,0003.14,0008.66,0002.14
2024-03-29 15:13:00,SystemResetWarning,0822.8,4.99,000.00,018.2,017.2,000.0,026.9,020.0,24.1,0000.0,0003.12,0008.63,0002.15
2024-03-29 15:14:00,SystemResetWarning,0822.7,4.99,000.00,018.2,017.2,000.0,026.9,020.0,24.2,0000.0,0003.15,0008.74,0002.18
2024-03-29 15:15:00,SystemResetWarning,0822.7,5.00,000.00,018.2,017.2,000.0,026.9,020.0,24.2,0000.0,0003.18,0008.44,0002.19
2024-03-29 15:16:00,SystemResetWarning,0822.7,5.02,000.00,018.2,017.3,000.0,026.9,020.0,24.3,0000.0,0003.19,0008.27,0002.21
2024-03-29 15:17:00,SystemResetWarning,0822.8,5.00,000.00,018.2,017.3,000.0,026.9,020.0,24.4,0000.0,0003.21,0008.76,0002.23
2024-03-29 15:18:00,SystemResetWarning,0822.8,4.99,000.00,018.2,017.3,000.0,026.9,020.0,24.3,0000.0,0003.26,0008.89,0002.27
2024-03-29 15:19:00,SystemResetWarning,0822.7,4.99,000.00,018.2,017.3,000.0,026.9,020.0,24.3,0000.0,0003.27,0008.91,0002.31
2024-03-29 15:20:00,SystemResetWarning,0822.8,5.00,000.00,018.2,017.3,000.0,026.9,020.0,24.3,0000.0,0003.26,0008.51,0002.33
2024-03-29 15:21:00,SystemResetWarning,0823.1,5.02,000.00,018.2,017.3,000.0,026.9,020.0,24.4,0000.0,0003.28,0008.42,0002.35
2024-03-29 15:22:00,SystemResetWarning,0823.3,4.99,000.00,018.2,017.4,000.0,026.9,020.0,24.4,0000.0,0003.28,0008.82,0002.36
2024-03-29 15:23:00,SystemResetWarning,0822.9,4.98,000.00,018.2,017.4,000.0,026.9,020.0,24.3,0000.0,0003.28,0008.82,0002.37
2024-03-29 15:24:00,SystemResetWarning,0822.9,5.01,000.00,018.2,017.4,000.0,026.9,020.0,24.4,0000.0,0003.30,0009.12,0002.41
2024-03-29 15:25:00,SystemResetWarning,0823.2,5.01,000.00,018.2,017.4,000.0,026.9,020.0,24.5,0000.0,0003.32,0009.47,0002.43
2024-03-29 15:26:00,SystemResetWarning,0822.9,5.00,000.00,018.2,017.4,000.0,026.9,020.0,24.5,0000.0,0003.35,0009.89,0002.46
2024-03-29 15:27:00,SystemResetWarning,0823.0,4.99,000.00,018.2,017.4,000.0,026.9,020.0,24.6,0000.0,0003.40,0010.45,0002.51
2024-03-29 15:28:00,SystemResetWarning,0823.1,4.99,000.00,018.2,017.5,000.0,026.9,020.0,24.7,0000.0,0003.45,0010.25,0002.54
2024-03-29 15:29:00,SystemResetWarning,0822.9,5.00,000.00,018.2,017.5,000.0,026.9,020.0,24.7,0000.0,0003.48,0010.72,0002.57
2024-03-29 15:30:00,SystemResetWarning,0823.0,5.00,000.00,018.2,017.5,000.0,026.9,020.0,24.5,0000.0,0003.53,0011.22,0002.61
2024-03-29 15:31:00,SystemResetWarning,0822.9,5.02,000.00,018.2,017.5,000.0,026.9,020.0,24.5,0000.0,0003.55,0011.24,0002.63
2024-03-29 15:32:00,SystemResetWarning,0823.0,5.00,000.00,018.2,017.5,000.0,026.9,020.0,24.7,0000.0,0003.57,0011.55,0002.66
2024-03-29 15:33:00,SystemResetWarning,0822.9,4.99,000.00,018.2,017.5,000.0,026.9,020.0,24.6,0000.0,0003.58,0011.06,0002.70
2024-03-29 15:34:00,SystemResetWarning,0823.1,5.00,000.00,018.2,017.5,000.0,026.9,020.0,24.8,0000.0,0003.59,0010.64,0002.72
2024-03-29 15:35:00,SystemResetWarning,0823.1,5.00,000.00,018.2,017.5,000.0,026.9,020.0,25.3,0000.0,0003.60,0010.34,0002.72
2024-03-29 15:36:00,SystemResetWarning,0823.0,5.01,000.00,018.2,017.5,000.0,026.9,020.0,25.1,0000.0,0003.58,0010.02,0002.71
2024-03-29 15:37:00,SystemResetWarning,0823.0,5.01,000.00,018.2,017.5,000.0,026.9,020.0,25.2,0000.0,0003.56,0009.94,0002.72
2024-03-29 15:38:00,SystemResetWarning,0823.0,5.01,000.00,018.2,017.5,000.0,026.9,020.0,25.3,0000.0,0003.56,0010.56,0002.74
2024-03-29 15:39:00,SystemResetWarning,0823.1,4.99,000.00,018.2,017.5,000.0,026.9,020.0,25.6,0000.0,0003.59,0010.57,0002.78
2024-03-29 15:40:00,SystemResetWarning,0823.0,4.99,000.00,018.2,017.5,000.0,026.9,020.0,25.7,0000.0,0003.60,0010.33,0002.84
2024-03-29 15:41:00,SystemResetWarning,0822.9,5.00,000.00,018.2,017.5,000.0,026.9,020.0,25.7,0000.0,0003.61,0009.76,0002.88
2024-03-29 15:42:00,SystemResetWarning,0822.9,5.01,000.00,018.2,017.5,000.0,026.9,020.0,25.7,0000.0,0003.68,0009.54,0002.93
2024-03-29 15:43:00,SystemResetWarning,0823.0,5.00,000.00,018.2,017.5,000.0,026.9,020.0,25.8,0000.0,0003.71,0009.29,0002.97
2024-03-29 15:44:00,SystemResetWarning,0823.0,4.99,000.00,018.2,017.6,000.0,026.8,020.0,25.6,0000.0,0003.69,0008.95,0002.98
2024-03-29 15:45:00,SystemResetWarning,0822.9,4.99,000.00,018.2,017.6,000.0,026.8,020.0,25.4,0000.0,0003.73,0009.46,0003.01
2024-03-29 15:46:00,SystemResetWarning,0822.8,5.01,000.00,018.2,017.6,000.0,026.9,020.0,25.3,0000.0,0003.77,0009.60,0003.06
2024-03-29 15:47:00,SystemResetWarning,0822.8,5.01,000.00,018.2,017.6,000.0,026.8,020.0,25.5,0000.0,0003.81,0009.71,0003.10
2024-03-29 15:48:00,SystemResetWarning,0822.8,5.00,000.00,018.3,017.6,000.0,026.8,020.0,25.6,0000.0,0003.86,0009.37,0003.11
2024-03-29 15:49:00,SystemResetWarning,0823.1,4.98,000.00,018.2,017.6,000.0,026.8,020.0,25.6,0000.0,0003.85,0008.36,0003.10
2024-03-29 15:50:00,SystemResetWarning,0823.0,4.99,000.00,018.3,017.6,000.0,026.8,020.0,25.8,0000.0,0003.81,0008.09,0003.05
2024-03-29 15:51:00,SystemResetWarning,0822.9,4.99,000.00,018.3,017.6,000.0,026.8,020.0,26.1,0000.0,0003.78,0007.95,0002.99
2024-03-29 15:52:00,SystemResetWarning,0822.9,5.00,000.00,018.3,017.6,000.0,026.8,020.0,26.2,0000.0,0003.73,0007.83,0002.92
2024-03-29 15:53:00,SystemResetWarning,0823.0,5.00,000.00,018.3,017.7,000.0,026.8,020.0,26.1,0000.0,0003.65,0008.14,0002.85
2024-03-29 15:54:00,SystemResetWarning,0822.8,5.00,000.00,018.3,017.7,000.0,026.8,020.0,26.1,0000.0,0003.60,0008.28,0002.78
2024-03-29 15:55:00,SystemResetWarning,0823.0,4.99,000.00,018.3,017.7,000.0,026.8,020.0,25.9,0000.0,0003.57,0008.27,0002.73
2024-03-29 15:56:00,SystemResetWarning,0822.9,5.00,000.00,018.3,017.7,000.0,026.8,020.0,26.1,0000.0,0003.54,0007.88,0002.68
2024-03-29 15:57:00,SystemResetWarning,0822.9,5.00,000.00,018.3,017.7,000.0,026.8,020.0,26.3,0000.0,0003.47,0007.65,0002.60
2024-03-29 15:58:00,SystemResetWarning,0822.8,4.99,000.00,018.3,017.7,000.0,026.8,020.0,26.5,0000.0,0003.43,0007.69,0002.55
2024-03-29 15:59:00,SystemResetWarning,0823.0,4.99,000.00,018.3,017.7,000.0,026.8,020.0,26.6,0000.0,0003.38,0008.06,0002.50
